NOZ4BJ ENGM-EPKK

Flight info

Callsign NOZ4BJ
Flight time N/A
Altitude 31000
Route OKSAT L996 GETPA/N0446F350 L996 KELIN DCT NEXIL DCT ROE DCT AMROR N983 POLON N133 NEGUV M66 KUKAM
Aircraft B738/M-SDE2E3FGHIRWXY/LB1

Departure

Time 2026-05-05 13:42
Airport Oslo-Gardermoen International Airport (ENGM)

Arrival

Time N/A
Airport Kraków John Paul II International Airport (EPKK)
Time Latitude Longitude Altitude Speed Heading
2026-05-05 13:18 60.19670 11.09974 684 ft 0 kts 106°
2026-05-05 13:31 60.19671 11.09969 684 ft 3 kts 106°
2026-05-05 13:31 60.19678 11.09918 682 ft 4 kts 106°
2026-05-05 13:32 60.19682 11.09892 679 ft 1 kts 106°
2026-05-05 13:35 60.19675 11.09894 680 ft 2 kts 178°
2026-05-05 13:35 60.19667 11.09851 683 ft 6 kts 275°
2026-05-05 13:35 60.19667 11.09723 683 ft 12 kts 260°
2026-05-05 13:35 60.19673 11.09498 681 ft 20 kts 295°
2026-05-05 13:36 60.19710 11.09201 679 ft 24 kts 285°
2026-05-05 13:36 60.19757 11.08870 676 ft 24 kts 285°
2026-05-05 13:36 60.19718 11.08639 675 ft 22 kts 198°
2026-05-05 13:36 60.19556 11.08545 677 ft 27 kts 196°
2026-05-05 13:37 60.19363 11.08432 674 ft 30 kts 197°
2026-05-05 13:37 60.19184 11.08333 673 ft 28 kts 197°
2026-05-05 13:37 60.18997 11.08226 672 ft 28 kts 195°
2026-05-05 13:37 60.18804 11.08111 670 ft 29 kts 191°
2026-05-05 13:38 60.18638 11.08017 669 ft 23 kts 196°
2026-05-05 13:38 60.18544 11.07904 667 ft 16 kts 259°
2026-05-05 13:38 60.18564 11.07681 664 ft 8 kts 284°
2026-05-05 13:38 60.18567 11.07663 664 ft 0 kts 286°
2026-05-05 13:39 60.18570 11.07637 664 ft 7 kts 286°
2026-05-05 13:39 60.18587 11.07512 664 ft 12 kts 294°
2026-05-05 13:39 60.18662 11.07459 665 ft 8 kts 31°
2026-05-05 13:40 60.18685 11.07480 666 ft 0 kts 18°
2026-05-05 13:41 60.18898 11.07606 668 ft 73 kts 14°
2026-05-05 13:41 60.19636 11.08028 673 ft 147 kts 16°
2026-05-05 13:42 60.20764 11.08665 1102 ft 175 kts 14°
2026-05-05 13:42 60.22008 11.09409 1905 ft 191 kts 11°
2026-05-05 13:42 60.23308 11.10121 2696 ft 201 kts 10°
2026-05-05 13:42 60.24753 11.10911 2900 ft 227 kts 11°
2026-05-05 13:43 60.26312 11.11358 3498 ft 226 kts 351°
2026-05-05 13:43 60.27916 11.10884 3874 ft 247 kts 348°
2026-05-05 13:43 60.29681 11.10466 4670 ft 256 kts 359°
2026-05-05 13:43 60.31371 11.11521 5559 ft 265 kts 29°
2026-05-05 13:44 60.32742 11.14056 6449 ft 275 kts 53°
2026-05-05 13:44 60.33464 11.17697 7250 ft 283 kts 82°
2026-05-05 13:44 60.33276 11.21672 8078 ft 288 kts 111°
2026-05-05 13:44 60.32197 11.25051 8874 ft 291 kts 141°
2026-05-05 13:45 60.30497 11.27221 9732 ft 288 kts 158°
2026-05-05 13:45 60.28659 11.28784 10420 ft 294 kts 162°
2026-05-05 13:45 60.26671 11.30280 10622 ft 317 kts 162°
2026-05-05 13:45 60.24512 11.31868 10818 ft 340 kts 162°
2026-05-05 13:46 60.22254 11.33550 11324 ft 351 kts 162°
2026-05-05 13:46 60.19949 11.35296 12021 ft 356 kts 162°
2026-05-05 13:46 60.17614 11.37088 12752 ft 361 kts 161°
2026-05-05 13:46 60.15255 11.38913 13468 ft 366 kts 161°
2026-05-05 13:47 60.12873 11.40763 14250 ft 366 kts 162°
2026-05-05 13:47 60.10519 11.42596 14921 ft 370 kts 163°
2026-05-05 13:47 60.08099 11.44477 15529 ft 375 kts 164°
2026-05-05 13:47 60.05649 11.46380 16168 ft 379 kts 165°
2026-05-05 13:48 60.03170 11.48302 16801 ft 384 kts 166°
2026-05-05 13:48 60.01510 11.49588 17207 ft 387 kts 166°
2026-05-05 13:48 59.98142 11.52195 18023 ft 393 kts 167°
2026-05-05 13:48 59.95571 11.54180 18527 ft 397 kts 168°
2026-05-05 13:49 59.93855 11.55503 18832 ft 401 kts 169°
2026-05-05 13:49 59.91238 11.57517 19325 ft 405 kts 169°
2026-05-05 13:49 59.88603 11.59545 19887 ft 407 kts 170°
2026-05-05 13:49 59.85944 11.61590 20430 ft 410 kts 171°
2026-05-05 13:50 59.83268 11.63644 20988 ft 413 kts 171°
2026-05-05 13:50 59.80571 11.65707 21450 ft 417 kts 171°
2026-05-05 13:50 59.77880 11.67762 21925 ft 420 kts 172°
2026-05-05 13:50 59.75152 11.69845 22445 ft 423 kts 172°
2026-05-05 13:51 59.72383 11.71956 22937 ft 426 kts 172°
2026-05-05 13:51 59.69596 11.74077 23416 ft 430 kts 173°
2026-05-05 13:51 59.66790 11.76207 23816 ft 432 kts 172°
2026-05-05 13:51 59.63967 11.78324 24152 ft 432 kts 173°
2026-05-05 13:52 59.61125 11.80123 24630 ft 426 kts 175°
2026-05-05 13:52 59.58274 11.81712 25129 ft 424 kts 176°
2026-05-05 13:52 59.55455 11.83220 25542 ft 425 kts 176°
2026-05-05 13:52 59.52611 11.84996 25944 ft 436 kts 168°
2026-05-05 13:53 59.49863 11.87740 26444 ft 450 kts 159°
2026-05-05 13:53 59.47201 11.91016 26884 ft 452 kts 159°
2026-05-05 13:53 59.44523 11.94289 27219 ft 454 kts 159°
2026-05-05 13:53 59.41822 11.97552 27548 ft 457 kts 159°
2026-05-05 13:54 59.39097 12.00830 27889 ft 459 kts 159°
2026-05-05 13:54 59.36372 12.04102 28250 ft 460 kts 159°
2026-05-05 13:54 59.33632 12.07393 28598 ft 462 kts 159°
2026-05-05 13:54 59.30920 12.10646 28830 ft 464 kts 159°
2026-05-05 13:55 59.28151 12.13965 29119 ft 467 kts 158°
2026-05-05 13:55 59.25374 12.17289 29443 ft 469 kts 158°
2026-05-05 13:55 59.22582 12.20628 29748 ft 471 kts 158°
2026-05-05 13:55 59.19783 12.23970 30107 ft 471 kts 158°
2026-05-05 13:56 59.16987 12.27306 30481 ft 469 kts 158°
2026-05-05 13:56 59.14207 12.30617 30851 ft 468 kts 158°
2026-05-05 13:56 59.11419 12.33928 31169 ft 468 kts 158°
2026-05-05 13:56 59.08663 12.37192 31471 ft 468 kts 158°
2026-05-05 13:57 59.05881 12.40479 31780 ft 468 kts 158°
2026-05-05 13:57 59.03094 12.43768 32120 ft 467 kts 158°
2026-05-05 13:57 59.00308 12.47047 32437 ft 466 kts 158°
2026-05-05 13:57 58.97536 12.50309 32670 ft 466 kts 158°
2026-05-05 13:58 58.94796 12.53530 32950 ft 466 kts 158°
2026-05-05 13:58 58.92018 12.56786 33279 ft 465 kts 158°
2026-05-05 13:58 58.89248 12.60025 33577 ft 465 kts 158°
2026-05-05 13:58 58.86472 12.63263 33867 ft 465 kts 158°
2026-05-05 13:59 58.80939 12.69697 34376 ft 463 kts 158°
2026-05-05 13:59 58.78177 12.72899 34576 ft 463 kts 158°
2026-05-05 14:00 58.72645 12.79290 34919 ft 465 kts 157°
2026-05-05 14:00 58.69858 12.82498 34906 ft 468 kts 157°
2026-05-05 14:00 58.64314 12.88873 34895 ft 464 kts 157°
2026-05-05 14:01 58.58803 12.95196 34907 ft 460 kts 157°
2026-05-05 14:01 58.53307 13.01468 34918 ft 458 kts 157°
2026-05-05 14:02 58.47848 13.07671 34911 ft 458 kts 157°
2026-05-05 14:02 58.42361 13.13884 34916 ft 458 kts 158°
2026-05-05 14:03 58.36868 13.20082 34912 ft 458 kts 158°
2026-05-05 14:03 58.31408 13.26222 34901 ft 457 kts 157°
2026-05-05 14:04 58.25928 13.32363 34904 ft 457 kts 157°
2026-05-05 14:04 58.20432 13.38499 34912 ft 457 kts 158°
2026-05-05 14:05 58.14929 13.44619 34911 ft 458 kts 158°
2026-05-05 14:05 58.09455 13.50686 34905 ft 458 kts 158°
2026-05-05 14:06 58.03943 13.56774 34908 ft 458 kts 158°
2026-05-05 14:06 57.98435 13.62835 34893 ft 457 kts 158°
2026-05-05 14:07 57.92966 13.68844 34904 ft 457 kts 157°
2026-05-05 14:07 57.87459 13.74863 34898 ft 456 kts 158°
2026-05-05 14:08 57.81969 13.80828 34905 ft 456 kts 158°
2026-05-05 14:08 57.76508 13.86748 34895 ft 456 kts 158°
2026-05-05 14:09 57.70985 13.92718 34859 ft 455 kts 158°
2026-05-05 14:09 57.65541 13.98584 34897 ft 454 kts 158°
2026-05-05 14:10 57.60052 14.04476 34894 ft 453 kts 158°
2026-05-05 14:10 57.54602 14.10305 34888 ft 453 kts 158°
2026-05-05 14:11 57.49134 14.16132 34891 ft 453 kts 158°
2026-05-05 14:11 57.43661 14.21944 34887 ft 453 kts 158°
2026-05-05 14:12 57.38177 14.27749 34853 ft 452 kts 158°
2026-05-05 14:12 57.32752 14.33472 34873 ft 451 kts 158°
2026-05-05 14:13 57.27281 14.39224 34888 ft 451 kts 158°
2026-05-05 14:13 57.21822 14.44942 34883 ft 450 kts 157°
2026-05-05 14:14 57.16362 14.50642 34889 ft 450 kts 157°
2026-05-05 14:14 57.10944 14.56278 34888 ft 450 kts 157°
2026-05-05 14:15 57.05477 14.61947 34874 ft 450 kts 157°
2026-05-05 14:15 56.99999 14.67607 34887 ft 450 kts 157°
2026-05-05 14:16 56.94570 14.73199 34884 ft 451 kts 157°
2026-05-05 14:16 56.89095 14.78819 34890 ft 451 kts 157°
2026-05-05 14:17 56.83618 14.84421 34876 ft 450 kts 157°
2026-05-05 14:17 56.78169 14.89976 34885 ft 450 kts 157°
2026-05-05 14:18 56.72697 14.95536 34884 ft 450 kts 156°
2026-05-05 14:18 56.67218 15.01067 34878 ft 449 kts 158°
2026-05-05 14:19 56.61730 15.06526 34879 ft 450 kts 156°
2026-05-05 14:19 56.56269 15.12113 34886 ft 450 kts 156°
2026-05-05 14:20 56.50831 15.17585 34886 ft 449 kts 157°
2026-05-05 14:20 56.45360 15.23044 34873 ft 449 kts 156°
2026-05-05 14:21 56.39890 15.28485 34878 ft 447 kts 156°
2026-05-05 14:21 56.34431 15.33885 34881 ft 447 kts 156°
2026-05-05 14:22 56.29008 15.39239 34888 ft 447 kts 156°
2026-05-05 14:22 56.23554 15.44640 34891 ft 446 kts 156°
2026-05-05 14:23 56.18100 15.50007 34887 ft 446 kts 156°
2026-05-05 14:23 56.12682 15.55314 34867 ft 446 kts 156°
2026-05-05 14:24 56.07242 15.60625 34876 ft 444 kts 156°
2026-05-05 14:24 56.01810 15.65913 34899 ft 444 kts 156°
2026-05-05 14:25 55.96385 15.71177 34901 ft 443 kts 157°
2026-05-05 14:25 55.90959 15.76424 34900 ft 443 kts 157°
2026-05-05 14:26 55.85565 15.81624 34907 ft 442 kts 157°
2026-05-05 14:26 55.80145 15.86832 34889 ft 442 kts 157°
2026-05-05 14:27 55.74758 15.91993 34879 ft 441 kts 157°
2026-05-05 14:27 55.69341 15.97166 34893 ft 441 kts 157°
2026-05-05 14:28 55.63972 16.02276 34907 ft 440 kts 157°
2026-05-05 14:28 55.58553 16.07418 34912 ft 440 kts 157°
2026-05-05 14:29 55.53151 16.12527 34919 ft 440 kts 157°
2026-05-05 14:29 55.47739 16.17630 34904 ft 440 kts 157°
2026-05-05 14:30 55.42354 16.22692 34919 ft 440 kts 157°
2026-05-05 14:30 55.36940 16.27765 34918 ft 440 kts 158°
2026-05-05 14:31 55.31550 16.32800 34920 ft 440 kts 158°
2026-05-05 14:31 55.26127 16.37850 34921 ft 440 kts 158°
2026-05-05 14:32 55.20708 16.42881 34924 ft 440 kts 158°
2026-05-05 14:32 55.15295 16.47891 34919 ft 440 kts 158°
2026-05-05 14:33 55.09878 16.52889 34920 ft 440 kts 158°
2026-05-05 14:33 55.04464 16.57869 34924 ft 439 kts 158°
2026-05-05 14:34 54.99057 16.62827 34922 ft 439 kts 158°
2026-05-05 14:34 54.93676 16.67746 34924 ft 439 kts 158°
2026-05-05 14:35 54.88265 16.72678 34926 ft 438 kts 158°
2026-05-05 14:35 54.83773 16.76759 34927 ft 438 kts 158°
2026-05-05 14:36 54.77482 16.82459 34920 ft 438 kts 158°
2026-05-05 14:36 54.72955 16.86548 34923 ft 437 kts 158°
2026-05-05 14:37 54.67561 16.91409 34921 ft 437 kts 158°
2026-05-05 14:37 54.62210 16.96213 34912 ft 436 kts 159°
2026-05-05 14:38 54.56820 17.01039 34894 ft 436 kts 159°
2026-05-05 14:38 54.51428 17.05853 34912 ft 436 kts 159°
2026-05-05 14:39 54.46060 17.10630 34917 ft 437 kts 159°
2026-05-05 14:39 54.40636 17.15442 34922 ft 438 kts 159°
2026-05-05 14:40 54.35220 17.20233 34909 ft 441 kts 159°
2026-05-05 14:40 54.29749 17.25059 34901 ft 441 kts 159°
2026-05-05 14:41 54.24289 17.29865 34897 ft 439 kts 159°
2026-05-05 14:41 54.18853 17.34633 34899 ft 438 kts 159°
2026-05-05 14:42 54.13459 17.39349 34907 ft 437 kts 159°
2026-05-05 14:42 54.08035 17.44075 34900 ft 437 kts 159°
2026-05-05 14:43 54.02609 17.48790 34902 ft 437 kts 159°
2026-05-05 14:43 53.97216 17.53463 34874 ft 437 kts 159°
2026-05-05 14:44 53.91783 17.58157 34866 ft 437 kts 159°
2026-05-05 14:44 53.86392 17.62801 34886 ft 438 kts 159°
2026-05-05 14:45 53.80943 17.67479 34900 ft 439 kts 159°
2026-05-05 14:45 53.75465 17.72170 34901 ft 441 kts 159°
2026-05-05 14:46 53.69999 17.76837 34875 ft 443 kts 159°
2026-05-05 14:46 53.64480 17.81537 34875 ft 443 kts 159°
2026-05-05 14:47 53.58961 17.86224 34884 ft 444 kts 159°
2026-05-05 14:47 53.53435 17.90902 34870 ft 444 kts 159°
2026-05-05 14:48 53.47942 17.95538 34869 ft 443 kts 159°
2026-05-05 14:48 53.42423 18.00183 34868 ft 442 kts 159°
2026-05-05 14:49 53.36956 18.04769 34846 ft 442 kts 159°
2026-05-05 14:49 53.31441 18.09383 34858 ft 441 kts 159°
2026-05-05 14:50 53.25971 18.13946 34862 ft 441 kts 159°
2026-05-05 14:50 53.20472 18.18519 34838 ft 441 kts 159°
2026-05-05 14:51 53.14968 18.23084 34854 ft 441 kts 159°
2026-05-05 14:51 53.09479 18.27623 34859 ft 442 kts 159°
2026-05-05 14:52 53.03947 18.32184 34854 ft 442 kts 159°
2026-05-05 14:52 52.98451 18.36704 34859 ft 443 kts 159°
2026-05-05 14:53 52.92906 18.41249 34856 ft 445 kts 159°
2026-05-05 14:53 52.87330 18.45808 34854 ft 446 kts 159°
2026-05-05 14:54 52.81767 18.50344 34835 ft 446 kts 159°
2026-05-05 14:54 52.76227 18.54848 34825 ft 445 kts 158°
2026-05-05 14:55 52.70664 18.59358 34823 ft 445 kts 159°
2026-05-05 14:55 52.65098 18.63857 34828 ft 444 kts 159°
2026-05-05 14:56 52.59581 18.68303 34820 ft 443 kts 159°
2026-05-05 14:56 52.54039 18.72757 34808 ft 443 kts 159°
2026-05-05 14:57 52.48505 18.77191 34775 ft 441 kts 158°
2026-05-05 14:57 52.42997 18.81594 34789 ft 440 kts 158°
2026-05-05 14:58 52.37514 18.85963 34792 ft 439 kts 158°
2026-05-05 14:58 52.32009 18.90337 34789 ft 439 kts 158°
2026-05-05 14:59 52.26517 18.94690 34781 ft 438 kts 158°
2026-05-05 14:59 52.21016 18.99037 34780 ft 438 kts 158°
2026-05-05 15:00 52.16453 19.02633 34772 ft 438 kts 158°
2026-05-05 15:00 52.10133 19.07608 34495 ft 428 kts 158°
2026-05-05 15:01 52.07483 19.09689 34223 ft 420 kts 158°
2026-05-05 15:01 52.04855 19.11749 33830 ft 417 kts 158°
2026-05-05 15:01 52.02241 19.13793 33420 ft 414 kts 158°
2026-05-05 15:01 51.99660 19.15808 33010 ft 410 kts 158°
2026-05-05 15:02 51.97096 19.17809 32635 ft 407 kts 158°
2026-05-05 15:02 51.94585 19.19765 32254 ft 404 kts 158°
2026-05-05 15:02 51.92061 19.21729 31880 ft 401 kts 158°
2026-05-05 15:02 51.89546 19.23683 31517 ft 398 kts 158°
2026-05-05 15:03 51.87052 19.25620 31148 ft 395 kts 158°
2026-05-05 15:03 51.84581 19.27536 30794 ft 392 kts 158°
2026-05-05 15:03 51.82155 19.29414 30435 ft 390 kts 158°
2026-05-05 15:03 51.79711 19.31304 30092 ft 387 kts 158°
2026-05-05 15:04 51.77289 19.33176 29703 ft 385 kts 158°
2026-05-05 15:04 51.74878 19.35037 29304 ft 383 kts 158°
2026-05-05 15:04 51.72489 19.36878 28921 ft 379 kts 158°
2026-05-05 15:04 51.70114 19.38707 28556 ft 376 kts 158°
2026-05-05 15:05 51.65427 19.42311 27825 ft 369 kts 158°
2026-05-05 15:05 51.63109 19.44089 27456 ft 367 kts 158°
2026-05-05 15:05 51.60808 19.45852 27085 ft 364 kts 158°
2026-05-05 15:06 51.58529 19.47597 26742 ft 362 kts 158°
2026-05-05 15:06 51.56261 19.49330 26392 ft 359 kts 158°
2026-05-05 15:06 51.54037 19.51029 26060 ft 357 kts 158°
2026-05-05 15:06 51.51799 19.52736 25708 ft 356 kts 158°
2026-05-05 15:07 51.49560 19.54444 25365 ft 355 kts 158°